This is the latest recevied weather packets stored in our database for station/object KB3VSP. If no packets are shown the sender has not sent any weather packets the latest 10 day(s).
| Time | Temp. | Humidity | Pressure | Rain* | Wind** | Luminosity | Snow |
|---|---|---|---|---|---|---|---|
| 1778071918 | 8.33° C | 99% | 1008.2 hPa | 1.27 mm | - | 13 W/m² | - |
| 1778071616 | 8.33° C | 99% | 1007.8 hPa | 0 mm | - | 15 W/m² | - |
| 1778071314 | 8.33° C | 99% | 1007.8 hPa | 0 mm | - | 13 W/m² | - |
| 1778071011 | 8.33° C | 99% | 1007.9 hPa | 0 mm | - | 8 W/m² | - |
| 1778070710 | 8.33° C | 99% | 1007.6 hPa | 0 mm | - | 10 W/m² | - |
| 1778070406 | 8.89° C | 99% | 1007.2 hPa | 1.78 mm | - | 12 W/m² | - |
| 1778070104 | 8.33° C | 99% | 1007.2 hPa | 1.78 mm | - | 34 W/m² | - |
| 1778069802 | 8.33° C | 99% | 1007.7 hPa | 0 mm | - | 14 W/m² | - |
| 1778069498 | 8.33° C | 99% | 1007.9 hPa | 1.78 mm | - | 9 W/m² | - |
| 1778069196 | 8.89° C | 99% | 1008 hPa | 1.78 mm | - | 7 W/m² | - |
| 1778068893 | 8.33° C | 99% | 1008.3 hPa | 0 mm | - | 6 W/m² | - |
| 1778068591 | 8.89° C | 99% | 1007.8 hPa | 0 mm | - | 7 W/m² | - |
| 1778068289 | 8.89° C | 99% | 1007.7 hPa | 0 mm | - | 6 W/m² | - |
| 1778067986 | 8.89° C | 99% | 1007.6 hPa | 0 mm | - | 4 W/m² | - |
| 1778067684 | 8.89° C | 99% | 1007.8 hPa | 0 mm | - | 4 W/m² | - |
| 1778067382 | 8.89° C | 99% | 1007.7 hPa | 0 mm | - | 5 W/m² | - |
| 1778067079 | 8.89° C | 99% | 1007.4 hPa | 0 mm | - | 3 W/m² | - |
| 1778066775 | 8.89° C | 99% | 1006.9 hPa | 0 mm | - | 3 W/m² | - |
| 1778066473 | 8.89° C | 99% | 1006.9 hPa | 0 mm | - | 3 W/m² | - |
| 1778066170 | 9.44° C | 99% | 1006.8 hPa | 0 mm | - | 4 W/m² | - |
| 1778065868 | 9.44° C | 99% | 1006.9 hPa | 0 mm | - | 3 W/m² | - |
| 1778065565 | 10° C | 99% | 1006.6 hPa | 0 mm | - | 5 W/m² | - |
| 1778065263 | 10° C | 99% | 1006.8 hPa | 0 mm | - | 1 W/m² | - |
| 1778064959 | 10° C | 99% | 1006.9 hPa | 1.27 mm | - | 0 W/m² | - |
| 1778064656 | 10° C | 99% | 1006.9 hPa | 1.27 mm | - | 0 W/m² | - |
* Rain latest hour (hover to see other rain measurements)
** Current wind speed in m/s (hover to see current wind gust speed)